This demonstration page uses our WeatherBlox Daily Observations layout. Learn more.

Left ArrowRight Arrow

44.8408, -93.29828

Hourly Observations for April 7, 2019

Temp ( °F °C ) Dew Point ( °F °C ) Humidity (%) Winds ( mph kmh ) Pressure ( in mb ) Visibility ( mi km ) Precip ( " mm )
12:53 am 00:53 Cloudy with Mist and Fog 49 9.4 46 7.8 90 90 ESE 6 9 29.86 1011 6 10 0.00 0.03
1:53 am 01:53 Cloudy with Mist and Fog 48 8.9 46 7.8 93 93 ESE 8 13 29.83 1010 6 10 0.00 0.00
2:53 am 02:53 Clear with Mist and Fog 49 9.4 46 7.8 90 90 SE 6 9 29.81 1010 5 8 0.00 0.00
3:53 am 03:53 Cloudy 50 10 47 8.3 89 89 SSE 5 7 29.80 1009 7 11 0.00 0.00
4:53 am 04:53 Cloudy 50 10 47 8.3 89 89 SE 6 9 29.80 1009 8 13 0.00 0.00
5:53 am 05:53 Cloudy 52 11.1 48 8.9 86 86 Calm 29.79 1009 10 16 0.00 0.00
6:53 am 06:53 Cloudy 53 11.7 48 8.9 83 83 SE 3 6 29.80 1009 9 14 0.00 0.00
7:53 am 07:53 Cloudy 52 11.1 48 8.9 86 86 ESE 6 9 29.78 1009 9 14 0.00 0.00
8:53 am 08:53 Mostly Cloudy 54 12.2 49 9.4 83 83 S 3 6 29.77 1008 9 14 0.00 0.00
9:53 am 09:53 Mostly Cloudy 59 15 50 10 72 72 S 9 15 29.74 1007 10 16 0.00 0.00
10:53 am 10:53 Mostly Cloudy 61 16.1 51 10.6 70 70 SSE 6 9 29.74 1007 10 16 0.00 0.00
11:44 am 11:44 Cloudy 62 16.7 51 10.6 67 67 W 6 9 29.73 1007 10 16 0.00 0.00
11:53 am 11:53 Cloudy 62 16.7 51 10.6 67 67 W 9 15 29.74 1007 10 16 0.00 0.00
12:35 pm 12:35 Cloudy with Rain 57 13.9 53 11.7 87 87 W 6 9 29.74 1007 2 2 0.09 2.29
12:53 pm 12:53 Cloudy with Light Rain 57 13.9 54 12.2 90 90 Calm 29.74 1007 2 3 0.15 3.81
1:06 pm 13:06 Cloudy with Light Rain 57 13.9 54 12.2 90 90 W 3 6 29.73 1007 3 5 0.02 0.51
1:40 pm 13:40 Cloudy 58 14.4 54 12.2 87 87 WSW 6 9 29.73 1007 3 5 0.02 0.51
1:53 pm 13:53 Cloudy 58 14.4 53 11.7 84 84 WSW 6 9 29.74 1007 8 13 0.02 0.51
2:46 pm 14:46 Cloudy 58 14.4 53 11.7 84 84 W 8 13 29.73 1007 10 16 0.00 0.00
2:53 pm 14:53 Cloudy 58 14.4 53 11.7 84 84 WSW 7 11 29.73 1007 10 16 0.00 0.00
3:27 pm 15:27 Cloudy 58 14.4 53 11.7 84 84 W 8 13 29.72 1006 9 14 0.00 0.00
3:53 pm 15:53 Cloudy 59 15 52 11.1 78 78 W 8 13 29.73 1007 10 16 0.00 0.00
4:53 pm 16:53 Cloudy 60 15.6 52 11.1 75 75 W 10 17 29.73 1007 10 16 0.00 0.00
5:32 pm 17:32 Cloudy 60 15.6 51 10.6 72 72 W 9 15 29.73 1007 10 16 0.00 0.00
5:53 pm 17:53 Cloudy 60 15.6 52 11.1 75 75 W 8 13 29.75 1008 10 16 0.00 0.00
6:00 pm 18:00 Cloudy 60 15.6 52 11.1 75 75 W 12 19 29.75 1008 10 16 0.00 0.00
6:07 pm 18:07 Mostly Cloudy 61 16.1 52 11.1 72 72 W 12 19 29.75 1007 10 16 0.00 0.00
6:53 pm 18:53 Partly Cloudy 60 15.6 51 10.6 72 72 W 12 19 29.77 1008 10 16 0.00 0.00
7:53 pm 19:53 Partly Cloudy 56 13.3 49 9.4 77 77 W 8 13 29.80 1009 10 16 0.00 0.00
8:53 pm 20:53 Mostly Clear 53 11.7 46 7.8 77 77 WNW 13 20 29.82 1010 10 16 0.00 0.00
9:53 pm 21:53 Clear 51 10.6 43 6.1 74 74 WNW 6 9 29.84 1011 10 16 0.00 0.00
10:53 pm 22:53 Clear 50 10 43 6.1 77 77 WSW 5 7 29.84 1011 10 16 0.00 0.00
11:53 pm 23:53 Clear 47 8.3 42 5.6 83 83 W 3 6 29.84 1011 10 16 0.00 0.00

Powered by AerisWeather